www.pogodaiklimat.ru
ПОГОДА на АЭС Дукованы
Время
(UTC), дата
10 12.10
11 12.10
12 12.10
13 12.10
14 12.10
15 12.10
16 12.10
17 12.10
18 12.10
19 12.10
20 12.10
21 12.10
22 12.10
23 12.10
00 13.10
01 13.10
02 13.10
03 13.10
04 13.10
05 13.10
06 13.10
07 13.10
08 13.10
09 13.10
10 13.10
11 13.10
12 13.10
13 13.10
14 13.10
15 13.10
16 13.10
17 13.10
18 13.10
19 13.10
20 13.10
21 13.10
22 13.10
23 13.10
00 14.10
01 14.10
02 14.10
03 14.10
04 14.10
05 14.10
06 14.10
07 14.10
08 14.10
09 14.10
10 14.10
11 14.10
12 14.10
13 14.10
14 14.10
15 14.10
16 14.10
17 14.10
18 14.10
19 14.10
20 14.10
21 14.10
22 14.10
23 14.10
00 15.10
01 15.10
02 15.10
03 15.10
04 15.10
05 15.10
06 15.10
07 15.10
08 15.10
09 15.10
10 15.10
11 15.10
12 15.10
13 15.10
14 15.10
15 15.10
16 15.10
17 15.10
18 15.10
19 15.10
20 15.10
21 15.10
22 15.10
23 15.10
00 16.10
01 16.10
02 16.10
03 16.10
04 16.10
05 16.10
06 16.10
07 16.10
08 16.10
09 16.10
10 16.10
11 16.10
12 16.10
13 16.10
14 16.10
15 16.10
16 16.10
17 16.10
18 16.10
19 16.10
20 16.10
21 16.10
22 16.10
23 16.10
00 17.10
01 17.10
02 17.10
03 17.10
04 17.10
05 17.10
06 17.10
07 17.10
08 17.10
09 17.10
10 17.10
11 17.10
12 17.10
13 17.10
14 17.10
15 17.10
16 17.10
17 17.10
18 17.10
19 17.10
20 17.10
21 17.10
22 17.10
23 17.10
00 18.10
01 18.10
02 18.10
03 18.10
04 18.10
05 18.10
06 18.10
07 18.10
09 18.10
10 18.10
11 18.10
12 18.10
13 18.10
14 18.10
15 18.10
16 18.10
17 18.10
18 18.10
19 18.10
20 18.10
21 18.10
22 18.10
23 18.10
00 19.10
01 19.10
02 19.10
03 19.10
05 19.10
06 19.10
07 19.10
08 19.10
09 19.10
Ветер
(напр.,м/с)
Видим. Явления Облачность Т
(С)
Тd
(С)
f
(%)
Тe
(С)
Тes
(С)
Комфортность P
(гПа)
Po
(гПа)
Тmin
(С)
Tmax
(С)
R
(мм)
R24
(мм)
S
(см)
Ю 4 700 м туман ?/? +8.4 +8.3 99 +5 +5 тепло 1021.0 972.8
Ю 4 700 м туман ?/? +8.1 +8.1 100 +5 +5 тепло 1021.0 972.8
Ю 4 4000 м в посл. час туман 10/10 120 м
[St]
+8.4 +8.4 100 +5 +5 тепло 1020.5 972.3
Ю 4 7000 м дымка 10/10 150 м
[St]
+9.2 +8.4 95 +6 +6 тепло 1020.0 972.0
ЮВ 5 9000 м дымка 9/9 180 м
[St]
+11.0 +9.6 91 +8 +8 тепло 1019.5 971.8
ЮВ 3 11 км 9/8 240 м
[St Ci fib]
+12.3 +10.4 88 +11 +11 тепло 1019.0 971.6
В 4 12 км 9/9 240 м
[St]
+11.9 +10.1 89 +10 +10 тепло 1019.2 971.7
8000 м дымка 8/3 330 м
[Sc Ci fib]
+10.4 +9.6 95 1019.8 972.0
В 1 4000 м дымка 9/9 210 м
[St]
+9.0 +8.9 99 +8 +8 тепло 1020.5 972.4 +12.3
С 2 2000 м дымка 8/8 210 м
[St Ci fib]
+8.3 +8.2 99 +6 +6 тепло 1020.7 972.5
В 2 300 м туман 9/9 270 м
[St]
+8.4 +8.4 100 +6 +6 тепло 1020.7 972.5
С 2 100 м туман {дымка} н/о +8.8 +8.7 99 +7 +7 тепло 1020.9 972.8
С 2 200 м туман {дымка} н/о +8.9 +8.9 100 +7 +7 тепло 1020.8 972.7
С 2 100 м туман {дымка} н/о +9.0 +8.9 99 +7 +7 тепло 1020.7 972.6
нст 2 200 м туман {дымка} н/о +9.0 +8.8 99 +7 +7 тепло 1020.5 972.4
500 м туман {дымка} н/о +9.1 +9.0 99 1020.5 972.5
2300 м в посл. час туман {дымка} н/о +9.1 +8.8 98 1020.5 972.5
ЮВ 1 2700 м дымка {туман} н/о +9.5 +9.3 99 +9 +9 тепло 1020.0 972.1
сильная пыльная буря н/о 1022.4 972.6
200 м туман ?/? +9.9 +9.9 100 1020.6 972.7
В 3 200 м туман ?/? +9.5 +9.5 100 +7 +7 тепло 1021.2 973.2 +7.9
200 м туман ?/? +10.3 +10.3 100 1021.4 973.5
Ю 3 300 м туман ?/? +10.0 +10.0 100 +8 +8 тепло 1021.7 973.8
нст 3 1400 м в посл. час туман 10/10 120 м
[St]
+10.3 +10.3 100 +8 +8 тепло 1022.0 974.1
ЮВ 4 8000 м дымка 9/9 180 м
[St]
+11.6 +10.2 91 +9 +10 тепло 1021.7 974.0
Ю 5 11 км 9/9 210 м
[St]
+12.7 +10.6 87 +10 +11 тепло 1021.4 973.9
Ю 5 11 км {туман} 8/8 240 м
[St]
+13.7 +10.7 82 +12 +12 тепло 1021.0 973.7
Ю 4 15 км 6/6 700 м
[Cu med, cong]
+14.7 +11.1 79 +13 +15 тепло 1020.5 973.4
ЮВ 5 15 км 6/4 400 м
[Cu med, cong Ci sp]
+14.8 +11.2 79 +13 +14 тепло 1020.3 973.2
Ю 4 11 км 6/0
[Ci sp]
+14.5 +11.5 82 +13 +14 тепло 1020.1 973.0
Ю 2 11 км 6/0
[Ci sp]
+13.5 +11.2 86 +13 +13 тепло 1020.6 973.3
8000 м дымка 8/1 420 м
[Cu med, cong Ci sp]
+12.9 +11.1 89 1020.8 973.4
нст 1 8000 м дымка 9/0
[Ci sp]
+12.7 +11.3 91 +13 +13 тепло 1020.7 973.3 +15.3
В 4 8000 м дымка 5/0
[Ci sp]
+12.8 +11.0 89 +11 +11 тепло 1020.7 973.3
В 7 8000 м дымка 3/0
[Ci sp]
+13.4 +10.9 85 +11 +11 тепло 1020.5 973.2
В 5 9000 м дымка н/о +12.6 +10.7 88 +10 +10 тепло 1020.5 973.1
В 6 12 км н/о +12.5 +10.3 86 +10 +10 тепло 1020.3 972.8
В 5 3300 м дымка н/о +10.9 +10.4 97 +8 +8 тепло 1020.3 972.6
нст 2 6000 м дымка н/о +10.9 +10.1 95 +9 +9 тепло 1020.5 972.8
В 5 4800 м дымка н/о +10.7 +10.0 95 +8 +8 тепло 1020.1 972.4
В 5 5000 м дымка н/о +10.5 +9.8 95 +7 +7 тепло 1020.0 972.2
нст 2 6000 м дымка н/о +10.9 +10.2 95 +9 +9 тепло 1020.1 972.4
В 5 8000 м дымка н/о +12.0 +10.7 92 +9 +9 тепло 1019.9 972.4
В 4 3000 м дымка 10/10 180 м
[St]
+11.5 +11.0 97 +9 +9 тепло 1019.8 972.2
В 4 3000 м дымка 10/10 180 м
[St]
+11.4 +11.1 98 +9 +9 тепло 1020.1 972.5 +10.0
ЮВ 5 3000 м дымка 10/10 180 м
[St]
+11.5 +11.3 99 +9 +9 тепло 1020.6 973.0
В 7 800 м туман 10/10 150 м
[St]
+11.8 +11.3 97 +9 +9 тепло 1020.9 973.3
В 6 3000 м в посл. час туман 10/10 150 м
[St]
+12.0 +11.4 96 +9 +9 тепло 1021.2 973.6
ЮВ 5 3000 м дымка 10/10 150 м
[St]
+12.5 +11.6 94 +10 +10 тепло 1020.8 973.3
ЮВ 4 3000 м дымка 10/10 180 м
[St]
+13.2 +11.8 91 +11 +11 тепло 1020.2 972.9
ЮВ 5 7000 м дымка {туман} 9/9 210 м
[St]
+13.6 +11.7 88 +12 +12 тепло 1019.6 972.4
9000 м дымка 6/6 300 м
[St]
+14.8 +11.9 83 1018.7 971.7
В 5 11 км 6/6 500 м
[Cu med, cong]
+16.9 +12.4 75 +16 +17 тепло 1017.6 971.0
В 5 17 км 3/3 570 м
[Cu med, cong]
+17.2 +12.5 74 +17 +17 тепло 1017.0 970.5
В 4 18 км 1/0
[Ac lent]
+16.3 +12.3 77 +16 +16 тепло 1016.8 970.1
В 3 17 км 4/0
[Ci sp]
+14.9 +11.9 82 +14 +14 тепло 1016.7 969.8
В 6 20 км 4/0
[Ac trans Ci sp]
+15.5 +11.7 78 +14 +14 тепло 1016.4 969.6 +17.3
В 7 18 км 1/0
[Ac trans]
+15.2 +11.4 78 +13 +13 тепло 1016.0 969.2
В 7 20 км 1/0
[Ac trans]
+14.7 +11.5 81 +13 +13 тепло 1015.8 968.9
В 7 19 км н/о +14.1 +11.5 84 +12 +12 тепло 1015.3 968.4
В 7 20 км н/о +14.4 +11.6 83 +12 +12 тепло 1014.8 967.9
В 10
{12}
19 км н/о +14.8 +11.8 82 +12 +12 тепло 1014.4 967.6
В 7
{12}
16 км н/о +14.0 +11.5 85 +12 +12 тепло 1014.1 967.2
В 5 15 км н/о +14.0 +11.6 85 +12 +12 тепло 1013.5 966.6
В 6 14 км н/о +13.8 +11.5 86 +12 +12 тепло 1013.2 966.3
В 7 14 км н/о +13.5 +11.1 85 +11 +11 тепло 1013.0 966.1
В 8 15 км н/о +13.4 +10.9 85 +11 +11 тепло 1012.6 965.7
В 8 15 км 4/0
[Ac trans]
+13.4 +10.9 85 +11 +11 тепло 1012.5 965.6
В 5
{11}
15 км 4/0
[Ac lent]
+12.9 +11.0 88 +11 +11 тепло 1012.6 965.6 +12.3
В 8
{11}
12 км 4/1 420 м
[Cu med, cong Ac trans]
+13.5 +10.9 84 +11 +11 тепло 1012.6 965.7
ЮВ 9 12 км 8/8 420 м
[Sc]
+13.9 +10.9 82 +11 +11 тепло 1012.5 965.6
ЮВ 8
{12}
12 км 9/9 450 м
[Sc]
+14.4 +11.0 80 +12 +12 тепло 1012.2 965.4
ЮВ 9
{11}
12 км 8/8 570 м
[Sc]
+16.6 +11.5 72 +15 +15 тепло 1011.6 965.2
ЮВ 10
{11}
15 км 8/3 900 м
[Cu med, cong Ci sp]
+16.7 +11.2 70 +15 +15 тепло 1010.5 964.2
В 11
{12}
15 км 8/0
[Ci sp]
+17.9 +11.5 66 +17 +17 тепло 1009.8 963.7
ЮВ 10
{13}
18 км 6/3 900 м
[Cu med, cong Ci sp]
+18.9 +11.5 62 +19 +19 тепло 1009.0 963.1
ЮВ 11
{14}
18 км 6/3 900 м
[Cu med, cong Ci sp]
+18.6 +11.7 64 +18 +18 тепло 1008.2 962.3
ЮВ 9
{14}
20 км 6/4 1000 м
[Cu med, cong Ci sp]
+18.7 +12.0 65 +18 +18 тепло 1007.8 961.9
В 9
{11}
20 км 5/1 1000 м
[Sc Ci sp]
+18.3 +12.1 67 +18 +18 тепло 1007.4 961.5
В 9
{11}
25 км 3/0
[Ci sp]
+17.7 +11.9 69 +17 +17 тепло 1007.5 961.5
В 9
{14}
25 км ясно +17.0 +11.7 71 +16 +16 тепло 1007.6 961.5 +19.2
В 7 22 км ясно +15.6 +11.8 78 +14 +14 тепло 1007.8 961.4
В 8
{11}
25 км ясно +15.2 +11.6 79 +13 +13 тепло 1007.8 961.4
В 8
{11}
22 км н/о +14.7 +11.5 81 +12 +12 тепло 1008.0 961.5
В 7 20 км н/о +14.4 +11.5 83 +12 +12 тепло 1008.0 961.4
В 7 20 км н/о +14.1 +11.4 84 +12 +12 тепло 1008.2 961.6
В 3
{11}
17 км н/о +13.3 +11.3 88 +12 +12 тепло 1008.9 962.1
ЮВ 3 15 км н/о +12.7 +11.1 90 +11 +11 тепло 1009.4 962.5
Ю 2 2900 м дымка н/о +11.2 +10.9 98 +10 +10 тепло 1010.3 963.1
З 4 100 м туман {дымка} н/о +8.2 +8.2 100 +5 +5 тепло 1011.5 963.7
З 3 5000 м в посл. час туман {дымка} н/о +9.6 +9.5 99 +7 +7 тепло 1012.2 964.6
Ю 4 6000 м дымка 9/9 800 м
[Sc]
+10.5 +9.7 95 +8 +8 тепло 1012.8 965.4
Ю 4 6000 м слаб. дождь 9/9 1230 м
[Sc]
+10.9 +10.0 94 +8 +8 тепло 1013.7 966.3 +7.9 0.1
ЮЗ 6 6000 м слаб. дождь 10/10 600 м
[Sc]
+11.4 +10.6 95 +8 +8 тепло 1015.1 967.7
З 9 8000 м слаб. дождь 10/10 750 м
[Sc]
+11.2 +9.9 92 +7 +7 тепло 1015.8 968.3
З 8
{11}
20 км слаб. дождь 9/9 750 м
[Sc]
+11.7 +9.9 89 +8 +8 тепло 1016.3 968.9
З 10 30 км в посл. час дождь 9/9 600 м
[Sc]
+12.5 +10.0 85 +9 +9 тепло 1016.6 969.3
З 9
{11}
35 км 8/5 1080 м
[Cu med, cong Ac lent]
+13.8 +9.6 76 +11 +11 тепло 1016.5 969.4
З 10
{11}
35 км {дождь} 6/6 800 м
[Cu med, cong]
+15.0 +8.3 64 +13 +13 тепло 1016.2 969.3 5
З 8-13
{13}
35 км 6/6 900 м
[Cu med, cong]
+14.7 +8.2 65 +13 +13 тепло 1016.1 969.2
З 9
{11}
35 км 6/6 1000 м
[Cu med, cong]
+15.3 +6.1 54 +13 +13 тепло 1016.3 969.4
З 6
{13}
35 км 3/3 1000 м
[Cu med, cong]
+14.8 +6.1 56 +13 +13 тепло 1016.5 969.5
З 3 35 км ясно +13.1 +5.8 61 +12 +12 тепло 1017.0 969.7
ЮЗ 3 35 км ясно +11.8 +4.8 62 +10 +10 тепло 1017.5 970.0
Ю 3
{13}
35 км {дождь} ясно +11.0 +4.9 66 +9 +9 тепло 1018.0 970.3 +15.6 5
Ю 3 35 км ясно +10.0 +5.0 71 +8 +8 тепло 1018.3 970.5
З 4 30 км ясно +8.9 +4.9 76 +6 +6 тепло 1018.9 970.9
З 3 30 км н/о +8.2 +4.5 77 +6 +6 тепло 1018.9 970.7
З 4 30 км н/о +8.7 +4.5 75 +6 +6 тепло 1018.9 970.8
30 км н/о +7.8 +4.4 79 1019.0 970.8
нст 1 30 км н/о +6.5 +4.6 88 +5 +5 тепло 1019.2 970.7
СВ 2 30 км н/о +5.7 +4.7 93 +3 +3 по сезону 1019.0 970.4
С 2 24 км н/о +5.9 +5.4 97 +3 +3 по сезону 1018.8 970.3
нст 2 10 км в посл. час туман {дымка} н/о +5.0 +4.9 99 +2 +2 по сезону 1018.9 970.2
В 3 27 км н/о +5.2 +4.0 92 +2 +2 по сезону 1019.1 970.4
СВ 2 500 м туман ясно +4.4 +4.3 99 +1 +1 по сезону 1019.0 970.2
нст 1 25 км 6/0
[Ci fib]
+6.0 +5.1 94 +5 +5 тепло 1019.1 970.6 +4.2
В 3 20 км 6/0
[Ci sp]
+7.4 +6.3 93 +4 +5 по сезону 1019.4 971.1
В 4 20 км 6/0
[Ci sp]
+10.0 +7.9 87 +7 +9 тепло 1019.3 971.5
В 4 25 км 6/0
[Ci sp]
+11.7 +8.6 81 +10 +12 тепло 1018.8 971.3
В 4 25 км 6/0
[Ci sp]
+12.5 +9.1 80 +11 +14 тепло 1018.7 971.3
В 5 25 км 6/0
[Ci sp]
+13.4 +9.6 78 +11 +14 тепло 1018.1 970.9
В 4 25 км 6/0
[Ci sp]
+13.7 +10.1 79 +12 +15 тепло 1018.0 970.8
В 5 20 км 6/0
[Ci sp]
+14.6 +10.6 77 +13 +15 тепло 1017.5 970.5
ЮВ 6 20 км 6/6 500 м
[Cu med, cong]
+14.7 +10.5 76 +13 +13 тепло 1017.4 970.4
ЮВ 4 20 км 6/6 500 м
[Sc]
+14.3 +10.3 77 +13 +13 тепло 1017.3 970.3
15 км 9/9 600 м
[Sc]
+13.6 +10.4 81 1017.2 970.1
15 км 9/9 700 м
[Sc]
+13.1 +10.3 83 1017.3 970.1
В 5 20 км 9/9 840 м
[Sc]
+13.8 +10.4 80 +12 +12 тепло 1017.1 970.0 +15.1
В 5 15 км 9/9 1000 м
[Sc]
+12.6 +10.1 85 +10 +10 тепло 1016.9 969.6
В 4 20 км 9/0
[Ci fib]
+12.9 +10.1 83 +11 +11 тепло 1016.8 969.6
В 6 19 км н/о +12.3 +9.7 84 +10 +10 тепло 1016.8 969.5
В 6 16 км н/о +11.2 +9.3 88 +8 +8 тепло 1016.6 969.1
В 6 19 км н/о +11.6 +9.1 85 +9 +9 тепло 1016.4 969.0
В 4 18 км н/о +10.8 +8.9 88 +8 +8 тепло 1016.5 968.9
В 4 15 км н/о +10.2 +8.8 91 +7 +7 тепло 1016.0 968.4
В 4 14 км н/о +10.7 +9.1 90 +8 +8 тепло 1016.0 968.4
В 5 14 км н/о +10.8 +9.3 90 +8 +8 тепло 1015.9 968.4
В 3 11 км н/о +10.2 +9.3 94 +8 +8 тепло 1016.3 968.6
С 2 6000 м дымка 10/10 150 м
[St]
+9.7 +9.1 96 +8 +8 тепло 1016.2 968.5
С 1 1100 м дымка 10/10 60 м
[St]
+9.8 +9.6 99 +9 +9 тепло 1016.6 968.9 +9.6
В 3 500 м туман 10/10 30 м
[St]
+10.3 +10.1 99 +8 +8 тепло 1016.6 969.0
Ю 2 2000 м в посл. час туман 10/10 90 м
[St]
+11.4 +10.5 94 +10 +10 тепло 1017.0 969.5
Ю 2 4000 м дымка 10/10 120 м
[St]
+11.9 +10.8 93 +11 +11 тепло 1016.8 969.4
Ю 3 9000 м дымка 10/10 180 м
[St]
+13.0 +10.9 87 +12 +12 тепло 1016.0 968.8
В 4 15 км {туман} 9/9 300 м
[Sc]
+12.8 +10.5 86 +11 +11 тепло 1015.3 968.1
В 4 15 км 9/9 300 м
[Sc]
+12.5 +10.2 86 +11 +11 тепло 1015.1 967.9
В 4 15 км 9/9 300 м
[Sc]
+12.1 +10.0 87 +10 +10 тепло 1015.0 967.7
ЮВ 3 15 км 9/9 300 м
[Sc]
+11.9 +10.0 88 +10 +10 тепло 1015.0 967.7
В 2 12 км 10/10 270 м
[St]
+11.5 +9.6 88 +10 +10 тепло 1015.3 967.9
В 2 11 км 10/10 270 м
[St]
+11.1 +9.5 90 +10 +10 тепло 1015.3 967.8
В 1 8000 м дымка 10/10 180 м
[St]
+10.9 +9.5 91 +11 +11 тепло 1015.4 967.9 +13.5
Ю 2 8000 м дымка 10/10 150 м
[St]
+10.7 +9.6 93 +9 +9 тепло 1015.5 968.0
З 2 5000 м дымка 10/10 120 м
[St]
+10.5 +9.6 94 +9 +9 тепло 1015.7 968.1
З 3 4400 м дымка н/о +10.1 +9.6 97 +8 +8 тепло 1015.8 968.2
3200 м дымка н/о +9.7 +9.2 97 1015.9 968.2
ЮЗ 2 1500 м дымка н/о +9.4 +9.3 99 +8 +8 тепло 1015.9 968.1
нст 2 400 м туман {дымка} н/о +9.0 +8.8 99 +7 +7 тепло 1015.8 968.0 0.0
Ю 1 200 м туман {дымка} н/о +9.1 +8.9 99 +8 +8 тепло 1016.0 968.2
100 м туман {дымка} н/о +9.2 +9.0 99 1015.9 968.1
Ю 1 100 м туман {дымка} н/о +9.3 +9.2 99 +9 +9 тепло 1015.8 968.0
В 3 200 м туман 10/10 30 м
[St]
+8.9 +8.9 100 +6 +6 тепло 1015.9 968.0
В 3 200 м туман 10/10 30 м
[St]
+9.0 +9.0 100 +6 +6 тепло 1015.9 968.1 +8.8
В 4 200 м туман 10/10 30 м
[St]
+9.3 +9.3 100 +6 +6 тепло 1015.3 967.5
В 3 200 м туман 10/10 30 м
[St]
+9.8 +9.8 100 +7 +7 тепло 1015.2 967.5
В 5 800 м туман 10/10 60 м
[St]
+10.1 +9.9 99 +7 +7 тепло 1014.7 967.1
Местоположение метеостанции АЭС Дукованы (Чехия): широта 49.10 долгота 16.13 высота над уровнем моря 405 м.
В архиве по умолчанию представлена погода на АЭС Дукованы за последнюю неделю. Архивные данные за месяц целиком и за предыдущие месяцы, начиная с января 2011 года, Вы можете получить, выбрав интересующий диапазон дат из раскрывающегося списка и нажав кнопку "Найти!".
*Определитесь, кто Вы:
Внимание! Время в таблицах - всемирное. Для получения местного времени необходимо прибавить поправку, которая равна 1 ч.
Смотрите также архив погоды в соседних городах и на ближайших метеорологических станциях:
Партнеры нашего сайта:      
Пояснения к столбцам:
  • Ветер - указаны скорость ветра в м/с - средняя за 10 мин, порывы в срок и между сроками (в фигурных скобках) и направление, откуда дует ветер: С - северный,
  • СВ - северо-восточный, В - восточный, ЮВ - юго-восточный, Ю - южный, ЮЗ - юго-западный, З - западный, СЗ - северо-западный.
  • Видимость - горизонтальная дальность видимости в метрах или километрах. При видимости от 1 до 10 км при отсутствии осадков обычно наблюдается дымка, при ухудшении видимости до 1 км и менее - туман. В сухую погоду видимость может ухудшаться дымом, пылью или мглою.
  • Явления - указаны атмосферные явления, наблюдавшиеся в срок или в последний час перед сроком; фигурными скобками обозначены явления, наблюдавшиеся между сроками (за 1-3 часа до срока); квадратными скобками обозначены град или гололедные отложения с указанием их диаметра в мм.
  • Облачность - указаны через наклонную черту общая и нижняя облачность в баллах и высота нижней границы облаков в метрах; квадратными скобками обозначены формы облаков: Ci - перистые, Cs - перисто-слоистые, Cc - перисто-кучевые, Ac - высококучевые, As - высокослоистые, Sc - слоисто-кучевые, Ns - слоисто-дождевые, Cu - кучевые, Cb - кучево-дождевые. Подробнее классификацию облаков см. в Атласе облаков (PDF).
  • T - Температура воздуха - температура, измеренная на высоте 2 м над землей.
  • Td - Температура точки росы - температура, при понижении до которой содержащийся в воздухе водяной пар достигнет насыщения.
  • f - Относительная влажность воздуха - влажноcть воздуха, измеренная на высоте 2 м над землей.
  • Te - Эффективная температура - температура, которую ощущает одетый по сезону человек в тени. Характеристика душности погоды. При расчете учитывается влияние влажности воздуха и скорости ветра на теплоощущения человека.
  • Tes - Эффективная температура на солнце - температура, которую ощущает человек, с поправкой на солнечный нагрев. Характеристика знойности погоды. Зависит от высоты солнца над горизонтом, облачности и скорости ветра. Ночью, в пасмурную погоду, а также при ветре 12 м/с и более поправка равна нулю.
  • P - Атмосферное давление - приведенное к уровню моря атмосферное давление.
  • Po - Атмосферное давление - измеренное на уровне метеостанции атмосферное давление.
  • Tmin - Минимальная температура - минимум температуры воздуха на высоте 2 м над землей.
  • Tmax - Максимальная температура - максимум температуры воздуха на высоте 2 м над землей.
  • R - Количество осадков - Количество выпавших осадков за период времени, мм. При наведении курсора мыши на число - период времени, за который выпало указанное количество осадков.
  • R24 - Количество осадков - Количество выпавших осадков за 24 часа, мм.
  • S - Снежный покров - Высота снежного покрова, см. При наведении курсора мыши на число - состояние снежного покрова и степень покрытия местности в баллах.